Location: Newark
(45.8667°N, 9.7333°E)
Time: 18:10:37
(UTC+00:00)

A-11 Canister half - Pass Details

Date: 21 January 2020
Orbit: 1517 x 1683 km, 47.2° (Epoch: 26 February)

Event Time Altitude Azimuth Distance (km) Brightness Sun altitude
Rises 00:12:51 0° 230° (SW) 4,714 - -62.9°
Reaches altitude 10° 00:15:58 10° 227° (SW) 3,715 - -62.7°
Maximum altitude 00:25:07 62° 150° (SSE) 1,678 - -62.0°
Drops below altitude 10° 00:34:10 10° 72° (ENE) 3,683 - -61.2°
Exits shadow 00:34:43 - 72° (ENE) 3,859 11.3 -61.2°
Sets 00:37:14 0° 70° (ENE) 4,672 11.9 -60.9°
